Precipitable_Water
0.86 0.80 0.79 0.80 0.78 0.77 0.74 0.75 0.78 0.81 0.81 0.80 0.77 0.64 0.70 0.77 0.84 0.94 0.93 0.79 0.75 0.72 0.67 0.67 0.67 0.66 0.63 0.61 0.65 0.60 0.60 0.58 0.57
0.88 0.85 0.84 0.83 0.82 0.78 0.71 0.70 0.74 0.78 0.75 0.83 0.75 0.62 0.70 0.75 0.82 0.90 0.84 0.67 0.72 0.67 0.65 0.68 0.67 0.65 0.62 0.58 0.64 0.60 0.58 0.54 0.54
0.87 0.89 0.92 0.90 0.84 0.77 0.68 0.65 0.69 0.74 0.74 0.77 0.72 0.59 0.69 0.73 0.77 0.82 0.80 0.68 0.70 0.68 0.63 0.64 0.66 0.65 0.62 0.57 0.57 0.57 0.58 0.56 0.55
0.91 0.90 0.95 0.91 0.83 0.76 0.65 0.59 0.62 0.70 0.73 0.72 0.69 0.58 0.64 0.68 0.70 0.72 0.71 0.62 0.67 0.66 0.60 0.60 0.62 0.62 0.63 0.57 0.55 0.55 0.57 0.57 0.57
0.90 0.84 0.89 0.88 0.85 0.75 0.64 0.56 0.59 0.64 0.71 0.69 0.62 0.58 0.56 0.64 0.65 0.71 0.76 0.71 0.65 0.63 0.59 0.57 0.57 0.58 0.58 0.59 0.57 0.56 0.56 0.56 0.58
0.88 0.82 0.82 0.83 0.79 0.71 0.62 0.56 0.60 0.63 0.64 0.60 0.57 0.55 0.52 0.60 0.65 0.72 0.74 0.68 0.63 0.61 0.58 0.54 0.54 0.56 0.57 0.57 0.58 0.60 0.60 0.60 0.60
0.88 0.85 0.83 0.82 0.76 0.69 0.63 0.57 0.56 0.58 0.56 0.54 0.54 0.52 0.51 0.56 0.61 0.71 0.75 0.69 0.67 0.67 0.63 0.58 0.56 0.57 0.58 0.61 0.61 0.63 0.64 0.63 0.65
0.80 0.80 0.79 0.81 0.72 0.70 0.67 0.58 0.55 0.55 0.57 0.58 0.62 0.56 0.52 0.56 0.52 0.66 0.73 0.73 0.68 0.75 0.74 0.70 0.64 0.63 0.62 0.63 0.65 0.65 0.66 0.66 0.66
0.72 0.73 0.77 0.78 0.75 0.76 0.74 0.69 0.64 0.60 0.59 0.59 0.56 0.61 0.60 0.59 0.56 0.56 0.67 0.70 0.70 0.70 0.76 0.77 0.75 0.69 0.66 0.66 0.67 0.68 0.68 0.68 0.69
0.72 0.73 0.78 0.77 0.75 0.75 0.74 0.72 0.67 0.67 0.64 0.58 0.56 0.54 0.55 0.57 0.59 0.55 0.59 0.66 0.66 0.67 0.70 0.72 0.75 0.76 0.71 0.71 0.71 0.72 0.72 0.71 0.71
0.76 0.72 0.74 0.77 0.77 0.76 0.75 0.71 0.67 0.65 0.69 0.67 0.62 0.57 0.55 0.55 0.56 0.59 0.59 0.60 0.61 0.62 0.63 0.67 0.70 0.72 0.74 0.73 0.74 0.75 0.76 0.75 0.75
0.80 0.76 0.74 0.78 0.80 0.79 0.80 0.78 0.77 0.74 0.72 0.70 0.71 0.64 0.60 0.58 0.56 0.56 0.58 0.61 0.64 0.63 0.64 0.65 0.66 0.69 0.71 0.72 0.75 0.75 0.76 0.76 0.77
0.82 0.79 0.74 0.78 0.80 0.82 0.81 0.80 0.77 0.76 0.74 0.72 0.73 0.72 0.66 0.62 0.60 0.60 0.58 0.59 0.60 0.62 0.63 0.64 0.65 0.67 0.70 0.73 0.74 0.76 0.76 0.77 0.77
0.82 0.82 0.83 0.83 0.83 0.83 0.83 0.83 0.82 0.79 0.80 0.79 0.79 0.75 0.74 0.71 0.68 0.63 0.62 0.61 0.60 0.60 0.61 0.63 0.64 0.64 0.67 0.73 0.76 0.78 0.76 0.76 0.79
0.83 0.83 0.86 0.90 0.85 0.81 0.83 0.83 0.88 0.86 0.84 0.85 0.84 0.83 0.81 0.79 0.77 0.74 0.75 0.73 0.70 0.68 0.65 0.64 0.66 0.67 0.68 0.70 0.73 0.74 0.75 0.80 0.82
0.84 0.84 0.85 0.90 0.88 0.84 0.85 0.86 0.85 0.84 0.91 0.88 0.85 0.86 0.87 0.84 0.82 0.83 0.80 0.77 0.78 0.76 0.72 0.69 0.68 0.67 0.70 0.69 0.70 0.75 0.79 0.80 0.81
0.92 0.89 0.89 0.90 0.88 0.89 0.86 0.86 0.84 0.89 0.98 0.85 0.85 0.69 0.73 0.78 0.83 0.85 0.83 0.80 0.85 0.84 0.84 0.81 0.74 0.69 0.68 0.71 0.72 0.81 0.85 0.88 0.91
1.05 1.01 0.98 0.96 0.93 0.87 0.91 0.93 0.91 0.87 0.97 0.98 0.85 0.69 0.57 0.66 0.76 0.78 0.82 0.85 0.87 0.91 0.90 0.83 0.79 0.77 0.75 0.79 0.85 0.91 0.92 0.93 0.96
0.99 0.98 0.98 1.01 1.01 0.98 1.00 1.04 0.96 0.96 0.86 0.94 0.94 0.90 0.82 0.67 0.64 0.78 0.81 0.88 0.90 0.87 0.83 0.80 0.78 0.79 0.82 0.89 0.92 0.93 0.92 0.94 0.95
1.05 1.02 1.03 1.02 1.05 1.04 1.05 1.04 1.03 1.03 0.97 0.88 0.86 0.88 0.88 0.88 0.79 0.69 0.76 0.89 0.89 0.93 0.91 0.92 0.92 0.87 0.88 0.92 0.95 0.94 0.95 0.97 0.99
Wind_Speed
6 7 8 9 10 11 11 11 11 11 11 10 10 10 10 11 11 10 11 12 12 13 13 13 13 13 12 12 11 10 10 9 8
7 8 9 10 12 13 13 13 13 12 12 12 11 11 11 11 11 11 11 12 13 13 13 13 13 13 12 11 10 9 9 8 7
9 9 11 11 12 13 14 13 13 13 13 12 13 12 12 13 13 12 13 13 14 14 13 13 13 12 12 10 9 9 8 8 7
10 11 12 12 12 13 13 13 13 13 13 13 13 13 14 14 14 14 14 14 14 14 14 14 13 13 12 11 10 9 9 9 9
11 12 12 12 13 14 14 14 13 13 13 14 14 14 15 15 15 15 15 15 15 15 15 15 14 14 13 12 11 11 11 11 11
12 13 12 13 15 15 15 15 14 14 14 14 15 15 15 16 16 16 16 17 16 17 17 17 16 15 15 14 13 13 13 13 13
13 13 14 15 16 16 16 15 15 15 15 15 16 16 17 17 17 17 18 18 18 18 18 18 18 18 17 17 16 16 16 16 16
14 15 16 16 16 16 16 16 16 16 16 17 17 17 18 18 19 19 19 20 20 20 20 20 20 20 20 20 20 20 20 20 20
16 16 16 16 16 16 16 16 16 17 17 18 18 18 19 20 20 20 21 22 22 23 23 23 23 23 22 23 23 23 23 24 24
18 18 18 18 18 18 18 18 19 19 20 20 21 22 22 23 23 24 24 24 25 25 25 26 26 26 26 26 26 27 27 27 27
21 21 21 21 21 21 20 21 21 22 22 23 24 25 26 27 27 27 28 28 29 29 29 29 29 29 30 30 30 30 30 30 31
23 23 23 23 23 23 23 24 24 25 25 26 27 28 29 29 30 31 32 32 32 33 33 33 33 32 33 33 34 33 33 32 32
25 25 25 25 25 25 26 26 27 28 29 29 30 30 31 32 33 33 34 35 35 36 36 36 36 36 36 36 36 37 36 35 34
27 28 28 28 28 28 28 29 29 30 31 32 32 33 33 34 35 36 36 37 38 38 39 39 39 40 39 39 39 39 39 38 36
30 30 31 31 31 31 31 32 32 33 33 34 34 35 36 36 37 37 38 39 40 41 41 41 42 42 42 42 41 41 40 38 37
32 32 33 33 34 34 34 34 34 35 35 35 36 37 37 37 38 38 39 40 40 41 42 43 43 43 43 42 42 40 39 37 36
34 34 35 35 36 36 36 37 37 36 36 36 36 36 36 38 39 40 40 40 40 41 41 42 42 42 41 41 39 38 37 35 34
35 36 37 37 38 38 39 39 39 38 37 37 35 34 35 35 35 36 37 38 38 39 40 40 40 40 39 39 38 37 36 35 34
37 38 39 40 40 40 40 41 41 40 40 38 40 41 39 37 37 36 36 36 39 40 39 39 39 40 40 38 38 37 36 36 35
38 39 40 41 42 42 42 42 42 42 42 41 40 40 40 41 41 41 40 41 40 40 40 40 40 40 40 39 38 37 37 36 35
Wind_Direction
306 308 310 313 312 312 309 304 304 302 301 300 304 307 311 319 327 332 332 336 338 339 341 343 345 346 344 343 345 351 354 357 359
297 304 307 309 310 308 305 300 297 297 294 293 297 299 302 308 314 321 324 327 330 332 333 335 337 340 339 335 337 342 346 350 351
294 301 303 307 312 312 308 300 294 292 291 289 291 293 296 301 303 310 316 319 323 325 326 327 329 330 331 329 326 327 330 331 333
292 298 303 306 311 315 315 308 298 292 289 289 289 290 292 296 299 301 307 310 314 318 319 321 320 320 321 318 315 313 314 314 315
288 296 301 305 309 311 311 308 302 296 292 290 288 289 290 293 296 299 300 304 307 310 313 314 313 311 310 310 305 303 302 302 302
285 292 295 303 307 309 308 305 302 298 294 292 290 289 289 292 293 293 296 300 301 304 307 308 307 304 302 302 300 298 296 294 296
282 288 293 300 303 306 306 304 300 296 293 292 291 290 290 293 292 292 293 296 298 299 301 303 303 299 297 296 294 293 293 292 291
281 286 291 298 299 303 304 303 301 297 294 292 291 291 290 292 291 291 291 293 295 295 296 297 297 296 293 291 290 289 289 290 289
282 285 288 294 298 301 301 304 301 299 296 294 293 292 292 292 292 292 290 291 292 293 293 292 293 293 292 289 288 287 286 286 286
279 282 285 288 292 295 299 300 300 298 297 294 292 291 290 290 290 290 289 289 290 290 291 291 290 290 290 289 288 286 285 284 284
277 279 282 285 288 291 294 297 297 297 296 294 292 290 289 288 288 288 288 287 288 288 288 288 289 288 287 287 287 287 285 284 283
277 278 280 283 284 287 290 292 294 295 295 294 292 291 289 288 287 286 286 286 286 286 286 286 286 287 286 285 286 285 285 284 283
275 276 279 281 283 285 287 289 291 292 293 294 293 292 290 289 288 287 286 285 285 285 285 285 285 285 286 286 285 284 284 283 282
275 276 278 279 281 283 285 287 288 291 292 293 293 292 291 290 288 287 286 285 285 284 284 283 283 283 284 285 285 284 283 282 281
275 275 277 279 279 281 283 284 287 289 291 292 293 292 291 290 289 288 288 286 285 284 284 284 283 282 282 283 284 284 282 281 279
277 277 277 277 278 280 281 283 284 287 289 292 293 293 292 291 289 289 288 287 286 286 285 284 283 282 281 281 282 283 281 279 278
278 277 278 278 279 279 280 281 284 286 287 289 293 295 295 292 290 289 288 287 287 287 287 286 284 282 281 281 279 280 279 277 276
280 280 279 278 278 279 280 281 281 285 285 284 288 296 296 299 295 292 290 289 289 289 288 287 285 283 281 281 279 278 276 275 276
282 281 280 279 280 279 280 281 281 281 284 285 284 285 290 295 298 296 295 293 292 290 288 287 286 284 282 280 279 276 276 276 275
283 282 281 280 280 280 280 280 280 279 281 283 286 285 286 288 290 295 295 293 293 291 289 287 286 284 282 279 278 275 274 274 274